AirNav   Phillips 66 Aviation Fuel
 
 323 users online  

43A Montgomery County Airport
Star, North Carolina, USA

GOING TO STAR?


FAA INFORMATION EFFECTIVE 04 JANUARY 2018

Location

FAA Identifier: 43A
Lat/Long: 35-23-04.7560N / 079-47-24.9435W
35-23.079267N / 079-47.415725W
35.3846544 / -79.7902621
(estimated)
Elevation: 632.4 ft. / 193 m (estimated)
Variation: 06W (1985)
Time zone: UTC -5 (UTC -4 during Daylight Saving Time)
Zip code: 27356

Airport Operations

Airport use: Open to the public
Activation date: 07/1965
Control tower: no
ARTCC: WASHINGTON CENTER
FSS: RALEIGH FLIGHT SERVICE STATION
NOTAMs facility: RDU (NOTAM-D service available)
Attendance: UNATTENDED
Wind indicator: lighted
Segmented circle: no
Lights: ACTVT MIRL RY 03/21 AND PAPI RY 3 AND PAPI RY 21 - CTAF.
Beacon: white-green (lighted land airport)
Operates sunset to sunrise.

Airport Communications

CTAF/UNICOM: 122.8
FAYETTEVILLE APPROACH: 127.8
FAYETTEVILLE DEPARTURE: 127.8
WX AWOS-3 at HBI (17 nm N): 119.275 (336-626-7933)
WX AWOS-3 at VUJ (18 nm W): 128.175 (704-986-2097)

Nearby radio navigation aids

VOR radial/distance  VOR name  Freq  Var
SDZr319/14.2SANDHILLS VORTAC111.8003W
LIBr202/27.0LIBERTY VORTAC113.0003W

 
NDB name  Hdg/Dist  Freq  Var  ID
MACKALL331/26.127806WHFF .... ..-. ..-.

Airport Services

Parking: tiedowns
Airframe service: MAJOR
Powerplant service: MAJOR
Bottled oxygen: NONE
Bulk oxygen: NONE

Runway Information

Runway 3/21

Dimensions: 4002 x 75 ft. / 1220 x 23 m
Surface: asphalt, in excellent condition
Weight bearing capacity: 
Single wheel: 20.0
Runway edge lights: medium intensity
Gradient: NE
RUNWAY 3  RUNWAY 21
Latitude: 35-22.772160N35-23.386303N
Longitude: 079-47.563150W079-47.268632W
Elevation: 572.6 ft.632.4 ft.
Gradient: 1.5% UP1.5%
Traffic pattern: leftleft
Runway heading: 027 magnetic, 021 true207 magnetic, 201 true
Displaced threshold: no460 ft.
Markings: nonprecision, in good conditionnonprecision, in good condition
Visual slope indicator: 2-light PAPI on left (3.50 degrees glide path)2-light PAPI on left (4.00 degrees glide path)
Runway end identifier lights: nono
Touchdown point: yes, no lightsyes, no lights
Obstructions: 58 ft. trees, 1454 ft. from runway, 74 ft. right of centerline, 21:1 slope to clear60 ft. trees, 646 ft. from runway, 209 ft. left of centerline, 7:1 slope to clear
APCH RATIO 12:1 TO DSPLCD THLD.

Airport Ownership and Management from official FAA records

Ownership: Publicly-owned
Owner: MONTGOMERY COUNTY
PO BOX 425
TROY, NC 27371
Phone 910-576-4221
Manager: KEVIN MCNEILL
PO BOX 425
TROY, NC 27371
Phone (910) 220-1218
MGR PHONE 910-220-1218.

Airport Operational Statistics

Aircraft based on the field: 14
Single engine airplanes: 10
Multi engine airplanes: 4
    
Aircraft operations: avg 92/week *
42% military
31% transient general aviation
27% local general aviation
* for 12-month period ending 04 July 2016

Additional Remarks

DEER OCCASIONALLY ON RY.
40 FT PLINE 350-750 FT FM THLD RY 21 ACROSS & L OF CNTRLN.
20-25 FT DEPRESSION 180 FT S OF RY 03 THLD ON CNTRLN.
RY 03 HAS UPHILL GRADE.
35-40 FT DROP-OFF 80 FT W OF RY 03 CNTRLN AND 30 FT DROP-OFF 300 FT FM RY 21 THLD ON CNTRLN AND 30 FT DROP-OFF 80 FT R OF RY 21 CNTRLN.

Instrument Procedures

NOTE: All procedures below are presented as PDF files. If you need a reader for these files, you should download the free Adobe Reader.

NOT FOR NAVIGATION. Please procure official charts for flight.
FAA instrument procedures published for use between 4 January 2018 at 0901Z and 1 February 2018 at 0900Z.

 
IAPs - Instrument Approach Procedures
RNAV (GPS) RWY 03   download (169KB)
RNAV (GPS) RWY 21   download (190KB)
NOTE: Special Take-Off Minimums/Departure Procedures apply   download

Other nearby airports with instrument procedures:

KHBI - Asheboro Regional Airport (17 nm N)
KVUJ - Stanly County Airport (18 nm W)
KSOP - Moore County Airport (22 nm SE)
KSCR - Siler City Municipal Airport (24 nm NE)
KHFF - Mackall Army Airfield (25 nm SE)
 
Loc | Ops | Rwys | IFR | FBO | Links
Com | Nav | Svcs | Stats | Notes


 
Area around 43A (Montgomery County Airport)
 
Road maps at: MapQuest Bing Google
 
Aerial photo
WARNING: Photo may not be current or correct
Aerial photo of 43A (Montgomery County Airport)
Photo courtesy of AirNav, LLC
Photo taken 09-Aug-2010
looking South.

Do you have a better or more recent aerial photo of Montgomery County Airport that you would like to share? If so, please send us your photo.

 
Sectional chart

 
Airport distance calculator
Flying to Montgomery County Airport? Find the distance to fly.

From to 43A

Sunrise and sunset
Times for 23-Jan-2018
 Local
(UTC-5)
 Zulu
(UTC)
Morning civil twilight06:5811:58
Sunrise07:2612:26
Sunset17:3722:37
Evening civil twilight18:0423:04

Current date and time
Zulu (UTC)  23-Jan-2018 08:58:05
Local (UTC-5)  23-Jan-2018 03:58:05
 
METAR
KHBI 
17nm N 
230855Z AUTO 22010G15KT 10SM -RA SCT007 BKN033 OVC049 16/16 A2982 RMK AO2 P0028 60043 T01570157
KVUJ 
18nm W 
230835Z AUTO 22009KT 7SM -RA BKN008 BKN032 OVC060 16/16 A2985 RMK AO2 P0004 T01620160
KSOP 
22nm SE 
230834Z AUTO 19016G23KT 10SM OVC011 18/17 A2983 RMK AO2 PK WND 19026/0819
KSCR 
24nm NE 
230835Z AUTO 18016G25KT 10SM RA OVC009 17/16 A2979 RMK AO2 T01670161
KAFP 
26nm SW 
230835Z AUTO 17011G18KT 10SM -RA BKN019 OVC028 18/16 A2983 RMK AO2 T01770158
KHFF 
26nm SE 
230829Z AUTO 19017G28KT 10SM -RA OVC013 18/16 A2984 RMK AO2 RAB29 SLP119 $
KRCZ 
30nm S 
230835Z AUTO 18012G18KT 7SM RA SCT006 BKN013 OVC017 17/17 A2984 RMK AO2 T01730172
TAF
KPOB 
40nm E 
230722Z 2307/2408 19010KT 9999 FEW020 540102 QNH2988INS BECMG 2307/2308 18012G18KT 6000 -SHRA OVC010 520003 QNH2986INS BECMG 2313/2314 22015G25KT 4800 SHRA SCT005 OVC012 520003 QNH2987INS BECMG 2317/2318 24015G30KT 9999 NSW BKN025 520003 QNH2988INS BECMG 2320/2321 27015G25KT 9999 FEW025 520003 QNH2988INS BECMG 2323/2324 30009KT 9999 SKC 510102 QNH2996INS TX20/2319Z TN10/2401Z
KGSO 
44nm N 
230540Z 2306/2406 18010G18KT P6SM SCT007 OVC010 WS017/19050KT FM230700 19011G19KT 4SM -SHRA BR OVC008 WS017/19047KT FM231300 23018G30KT P6SM SCT018 SCT050 TEMPO 2313/2314 23023G33KT BKN012 FM231700 26012G21KT P6SM SKC FM240000 29008KT P6SM SKC
KFBG 
46nm E 
230754Z 2307/2408 18012G18KT 6000 -SHRA BKN015 520003 QNH2986INS BECMG 2313/2314 22015G25KT 4800 SHRA SCT005 OVC012 520003 QNH2987INS BECMG 2317/2318 24015G30KT 9999 NSW BKN025 520003 QNH2988INS BECMG 2320/2321 27015G25KT 9999 FEW025 520003 QNH2988INS BECMG 2323/2324 30009KT 9999 SKC 510102 QNH2996INS TX20/2319Z TN10/2401Z
KINT 
49nm NW 
230540Z 2306/2406 18010G18KT P6SM SCT007 OVC010 WS017/19050KT FM230700 19011G19KT 4SM -SHRA BR OVC008 WS017/19047KT FM231300 23018G30KT P6SM SCT018 SCT050 TEMPO 2313/2314 23023G33KT BKN012 FM231630 26012G21KT P6SM SKC FM240000 29008KT P6SM SKC
NOTAMs
Click for the latest NOTAMs
NOTAMs are issued by the DoD/FAA and will open in a separate window not controlled by AirNav.

 

 
 

Would you like to see your business listed on this page?

 If your business provides an interesting product or service to pilots, flight crews, aircraft, or users of the Montgomery County Airport, you should consider listing it here.  To start the listing process, click on the button below
 
Add a business
 

Other Pages about Montgomery County Airport

Update a link
 
Copyright © AirNav, LLC. All rights reserved. Privacy Policy  Contact